This is the latest recevied weather packets stored in our database for station/object KN4MGS. If no packets are shown the sender has not sent any weather packets the latest 10 day(s).
| Time | Temp. | Humidity | Pressure | Rain* | Wind** | Luminosity | Snow |
|---|---|---|---|---|---|---|---|
| 1777940287 | 18.33° C | 62% | 1017.6 hPa | 0 mm | - | 0 W/m² | - |
| 1777939983 | 18.33° C | 62% | 1017.7 hPa | 0 mm | - | 1 W/m² | - |
| 1777939680 | 18.89° C | 60% | 1017.6 hPa | 0 mm | - | 3 W/m² | - |
| 1777939378 | 18.89° C | 58% | 1017.4 hPa | 0 mm | - | 6 W/m² | - |
| 1777939074 | 19.44° C | 58% | 1017.4 hPa | 0 mm | - | 8 W/m² | - |
| 1777938771 | 20° C | 59% | 1017.6 hPa | 0 mm | - | 13 W/m² | - |
| 1777938468 | 20.56° C | 56% | 1017.3 hPa | 0 mm | - | 20 W/m² | - |
| 1777938166 | 20.56° C | 55% | 1017.3 hPa | 0 mm | - | 25 W/m² | - |
| 1777937862 | 21.11° C | 54% | 1017.2 hPa | 0 mm | - | 32 W/m² | - |
| 1777937557 | 21.67° C | 54% | 1017 hPa | 0 mm | - | 35 W/m² | - |
| 1777937255 | 22.22° C | 51% | 1017.3 hPa | 0 mm | - | 39 W/m² | - |
| 1777936952 | 22.22° C | 52% | 1017.3 hPa | 0 mm | - | 45 W/m² | - |
| 1777936649 | 22.78° C | 52% | 1017.2 hPa | 0 mm | - | 52 W/m² | - |
| 1777936345 | 22.78° C | 48% | 1017.1 hPa | 0 mm | - | 60 W/m² | - |
| 1777936041 | 23.33° C | 43% | 1017.1 hPa | 0 mm | - | 67 W/m² | - |
| 1777935740 | 23.89° C | 42% | 1017 hPa | 0 mm | - | 75 W/m² | - |
| 1777935438 | 23.89° C | 40% | 1017 hPa | 0 mm | - | 78 W/m² | - |
| 1777935134 | 23.89° C | 39% | 1016.9 hPa | 0 mm | - | 72 W/m² | - |
| 1777934831 | 23.89° C | 37% | 1017.1 hPa | 0 mm | - | 69 W/m² | - |
| 1777934529 | 23.89° C | 38% | 1017.2 hPa | 0 mm | - | 69 W/m² | - |
| 1777934225 | 24.44° C | 37% | 1017.2 hPa | 0 mm | - | 77 W/m² | - |
| 1777933920 | 25° C | 36% | 1017.1 hPa | 0 mm | - | 94 W/m² | - |
| 1777933618 | 25.56° C | 35% | 1017.2 hPa | 0 mm | - | 147 W/m² | - |
| 1777933314 | 25° C | 35% | 1017.1 hPa | 0 mm | - | 160 W/m² | - |
| 1777933012 | 25° C | 36% | 1016.9 hPa | 0 mm | - | 109 W/m² | - |
* Rain latest hour (hover to see other rain measurements)
** Current wind speed in m/s (hover to see current wind gust speed)